| time (UTC) | temp C | wind direction | speed KPH | gust KPH | rain 1hr cm | rain 24hr cm | rain mn cm | humidity % | barometer mb |
| 20260506144330 | 13 | 122 | 1.6 | 4.8 | 0.15 | 0.08 | 0.15 | 89 | 1006.2 |
| 20260506143828 | 13 | 119 | 3.2 | 4.8 | 0.15 | 0.08 | 0.15 | 91 | 1006.1 |
| 20260506142829 | 13 | 125 | 1.6 | 3.2 | 0.13 | 0.08 | 0.13 | 93 | 1006.4 |
| 20260506142328 | 12 | 89 | 1.6 | 4.8 | 0.13 | 0.08 | 0.13 | 92 | 1006.7 |
| 20260506141829 | 12 | 114 | 1.6 | 11.3 | 0.13 | 0.08 | 0.13 | 91 | 1006.6 |
| 20260506141329 | 12 | 126 | 3.2 | 11.3 | 0.13 | 0.08 | 0.13 | 90 | 1006.8 |
| 20260506140828 | 13 | 300 | 0.0 | 3.2 | 0.10 | 0.08 | 0.10 | 89 | 1007.0 |
| 20260506135828 | 13 | 278 | 0.0 | 9.7 | 0.05 | 0.00 | 0.05 | 86 | 1007.1 |
| 20260506135329 | 14 | 265 | 3.2 | 6.4 | 0.05 | 0.00 | 0.05 | 82 | 1007.0 |
| 20260506134829 | 15 | 288 | 3.2 | 8.0 | 0.03 | 0.00 | 0.03 | 80 | 1006.8 |
| 20260506134330 | 15 | 327 | 1.6 | 9.7 | 0.00 | 0.00 | 0.00 | 76 | 1006.5 |
| 20260506133828 | 16 | 277 | 3.2 | 9.7 | 0.00 | 0.00 | 0.00 | 69 | 1006.4 |
| 20260506133331 | 16 | 325 | 1.6 | 4.8 | 0.00 | 0.00 | 0.00 | 68 | 1006.2 |
| 20260506132829 | 16 | 339 | 1.6 | 4.8 | 0.00 | 0.00 | 0.00 | 67 | 1005.9 |
| 20260506132331 | 16 | 352 | 0.0 | 4.8 | 0.00 | 0.00 | 0.00 | 69 | 1005.8 |
| 20260506131831 | 16 | 28 | 0.0 | 4.8 | 0.00 | 0.00 | 0.00 | 69 | 1005.5 |
| 20260506131332 | 16 | 19 | 1.6 | 3.2 | 0.00 | 0.00 | 0.00 | 69 | 1005.6 |
| 20260506130831 | 17 | 350 | 0.0 | 3.2 | 0.00 | 0.00 | 0.00 | 65 | 1005.7 |
| 20260506130343 | 16 | 5 | 0.0 | 1.6 | 0.00 | 0.00 | 0.00 | 67 | 1005.8 |
| 20260506125828 | 16 | 5 | 0.0 | 1.6 | 0.00 | 0.00 | 0.00 | 67 | 1005.7 |
| 20260506124829 | 16 | 5 | 1.6 | 6.4 | 0.00 | 0.00 | 0.00 | 67 | 1005.9 |
| 20260506124329 | 16 | 32 | 0.0 | 4.8 | 0.00 | 0.00 | 0.00 | 68 | 1005.9 |
| 20260506123829 | 16 | 43 | 1.6 | 4.8 | 0.00 | 0.00 | 0.00 | 69 | 1005.9 |
| 20260506123329 | 16 | 37 | 0.0 | 4.8 | 0.00 | 0.00 | 0.00 | 70 | 1006.1 |
| 20260506122828 | 16 | 38 | 1.6 | 4.8 | 0.00 | 0.00 | 0.00 | 68 | 1006.0 |
| 20260506122328 | 16 | 106 | 3.2 | 6.4 | 0.00 | 0.00 | 0.00 | 68 | 1006.0 |
| 20260506121831 | 16 | 103 | 3.2 | 6.4 | 0.00 | 0.00 | 0.00 | 69 | 1006.0 |
| 20260506120830 | 16 | 115 | 3.2 | 9.7 | 0.00 | 0.00 | 0.00 | 68 | 1006.1 |
| 20260506115829 | 16 | 95 | 0.0 | 4.8 | 0.00 | 0.00 | 0.00 | 67 | 1006.4 |
| 20260506114832 | 16 | 88 | 0.0 | 4.8 | 0.00 | 0.00 | 0.00 | 69 | 1006.5 |
| 20260506114329 | 16 | 86 | 3.2 | 4.8 | 0.00 | 0.00 | 0.00 | 68 | 1006.4 |
| 20260506113829 | 16 | 28 | 0.0 | 6.4 | 0.00 | 0.00 | 0.00 | 69 | 1006.5 |
| 20260506113329 | 16 | 27 | 0.0 | 6.4 | 0.00 | 0.00 | 0.00 | 71 | 1006.5 |
| 20260506112328 | 17 | 28 | 1.6 | 6.4 | 0.00 | 0.00 | 0.00 | 64 | 1006.8 |
| 20260506111829 | 18 | 94 | 1.6 | 6.4 | 0.00 | 0.00 | 0.00 | 67 | 1006.7 |
| 20260506111329 | 18 | 103 | 3.2 | 9.7 | 0.00 | 0.00 | 0.00 | 65 | 1006.7 |
| 20260506110329 | 17 | 99 | 3.2 | 9.7 | 0.00 | 0.00 | 0.00 | 66 | 1007.0 |
| 20260506105328 | 16 | 104 | 1.6 | 4.8 | 0.00 | 0.00 | 0.00 | 72 | 1007.1 |
| 20260506104830 | 16 | 128 | 0.0 | 4.8 | 0.00 | 0.00 | 0.00 | 67 | 1007.2 |
| 20260506104331 | 16 | 95 | 1.6 | 4.8 | 0.00 | 0.00 | 0.00 | 71 | 1007.2 |
| 20260506103829 | 15 | 31 | 0.0 | 4.8 | 0.00 | 0.00 | 0.00 | 71 | 1007.1 |
| 20260506103329 | 15 | 32 | 0.0 | 4.8 | 0.00 | 0.00 | 0.00 | 70 | 1007.0 |
| 20260506102828 | 15 | 22 | 3.2 | 4.8 | 0.00 | 0.00 | 0.00 | 72 | 1007.1 |
| 20260506102329 | 15 | 109 | 0.0 | 9.7 | 0.00 | 0.00 | 0.00 | 72 | 1007.3 |
| 20260506101329 | 16 | 110 | 1.6 | 4.8 | 0.00 | 0.00 | 0.00 | 73 | 1007.4 |
| 20260506095828 | 16 | 30 | 0.0 | 4.8 | 0.00 | 0.00 | 0.00 | 71 | 1007.4 |
| 20260506095329 | 16 | 17 | 0.0 | 8.0 | 0.00 | 0.00 | 0.00 | 69 | 1007.5 |
| 20260506094831 | 16 | 5 | 1.6 | 8.0 | 0.00 | 0.00 | 0.00 | 69 | 1007.6 |
| 20260506094330 | 15 | 320 | 0.0 | 4.8 | 0.00 | 0.00 | 0.00 | 71 | 1007.6 |
| 20260506093830 | 15 | 319 | 1.6 | 4.8 | 0.00 | 0.00 | 0.00 | 71 | 1007.7 |
| 20260506093331 | 15 | 290 | 0.0 | 4.8 | 0.00 | 0.00 | 0.00 | 73 | 1007.7 |
| 20260506092829 | 15 | 5 | 1.6 | 4.8 | 0.00 | 0.00 | 0.00 | 74 | 1007.4 |
| 20260506092332 | 15 | 264 | 0.0 | 4.8 | 0.00 | 0.00 | 0.00 | 73 | 1007.3 |
| 20260506091831 | 15 | 329 | 0.0 | 4.8 | 0.00 | 0.00 | 0.00 | 77 | 1007.6 |
| 20260506091326 | 15 | 313 | 0.0 | 3.2 | 0.00 | 0.00 | 0.00 | 75 | 1007.4 |
| 20260506085819 | 15 | 321 | 0.0 | 1.6 | 0.00 | 0.00 | 0.00 | 73 | 1007.7 |
| 20260506085318 | 15 | 332 | 0.0 | 4.8 | 0.00 | 0.00 | 0.00 | 72 | 1007.7 |
| 20260506084817 | 15 | 348 | 1.6 | 4.8 | 0.00 | 0.00 | 0.00 | 72 | 1007.6 |
| 20260506084316 | 15 | 297 | 1.6 | 4.8 | 0.00 | 0.00 | 0.00 | 71 | 1007.7 |
| 20260506083813 | 15 | 321 | 1.6 | 4.8 | 0.00 | 0.00 | 0.00 | 72 | 1007.7 |
| 20260506082811 | 15 | 318 | 1.6 | 4.8 | 0.00 | 0.00 | 0.00 | 71 | 1007.6 |
| 20260506082310 | 15 | 9 | 1.6 | 4.8 | 0.00 | 0.00 | 0.00 | 73 | 1007.5 |
| 20260506081308 | 14 | 25 | 0.0 | 4.8 | 0.00 | 0.00 | 0.00 | 74 | 1007.6 |
| 20260506080310 | 14 | 44 | 0.0 | 1.6 | 0.00 | 0.00 | 0.00 | 75 | 1007.5 |
| 20260506073301 | 13 | 306 | 0.0 | 3.2 | 0.00 | 0.00 | 0.00 | 75 | 1007.8 |
| 20260506072800 | 13 | 294 | 1.6 | 3.2 | 0.00 | 0.00 | 0.00 | 75 | 1008.0 |
| 20260506072300 | 13 | 98 | 0.0 | 1.6 | 0.00 | 0.00 | 0.00 | 76 | 1008.0 |
| 20260506071802 | 13 | 98 | 0.0 | 0.0 | 0.00 | 0.00 | 0.00 | 77 | 1008.1 |
| 20260506071303 | 13 | 98 | 0.0 | 0.0 | 0.00 | 0.00 | 0.00 | 78 | 1008.2 |
| 20260506070757 | 13 | 98 | 0.0 | 0.0 | 0.00 | 0.00 | 0.00 | 79 | 1008.2 |
| 20260506070258 | 13 | 98 | 0.0 | 0.0 | 0.00 | 0.00 | 0.00 | 80 | 1008.2 |
| 20260506062248 | 12 | 99 | 3.2 | 4.8 | 0.00 | 0.00 | 0.00 | 82 | 1008.2 |
| 20260506061242 | 12 | 87 | 1.6 | 4.8 | 0.00 | 0.00 | 0.00 | 84 | 1008.2 |
| 20260506060741 | 11 | 123 | 0.0 | 3.2 | 0.00 | 0.00 | 0.00 | 86 | 1008.2 |
| 20260506060241 | 11 | 122 | 1.6 | 3.2 | 0.00 | 0.00 | 0.00 | 86 | 1008.2 |
| 20260506050722 | 8 | 68 | 0.0 | 0.0 | 0.00 | 0.00 | 0.00 | 92 | 1008.3 |
| 20260506050223 | 8 | 68 | 0.0 | 0.0 | 0.00 | 0.00 | 0.00 | 92 | 1008.3 |
| 20260506044715 | 8 | 68 | 0.0 | 0.0 | 0.00 | 0.00 | 0.00 | 90 | 1008.2 |
| 20260506044214 | 8 | 68 | 0.0 | 0.0 | 0.00 | 0.03 | 0.00 | 89 | 1008.2 |
| 20260506043711 | 8 | 68 | 0.0 | 0.0 | 0.00 | 0.03 | 0.00 | 88 | 1008.1 |
| 20260506043209 | 9 | 68 | 0.0 | 0.0 | 0.00 | 0.03 | 0.00 | 88 | 1008.3 |
| 20260506042712 | 9 | 68 | 0.0 | 0.0 | 0.00 | 0.03 | 0.00 | 87 | 1008.3 |
| 20260506042208 | 9 | 68 | 0.0 | 1.6 | 0.00 | 0.03 | 0.00 | 87 | 1008.2 |
| 20260506041706 | 9 | 68 | 0.0 | 1.6 | 0.00 | 0.03 | 0.00 | 87 | 1008.3 |
| 20260506041206 | 9 | 267 | 0.0 | 1.6 | 0.00 | 0.03 | 0.00 | 87 | 1008.4 |
| 20260506040704 | 9 | 246 | 0.0 | 1.6 | 0.00 | 0.03 | 0.00 | 87 | 1008.2 |
| 20260506040202 | 9 | 246 | 0.0 | 1.6 | 0.00 | 0.03 | 0.00 | 87 | 1008.3 |
| 20260506035706 | 9 | 246 | 0.0 | 1.6 | 0.00 | 0.03 | 0.00 | 86 | 1008.4 |
| 20260506035205 | 10 | 266 | 0.0 | 6.4 | 0.00 | 0.03 | 0.00 | 85 | 1008.4 |
| 20260506034202 | 10 | 261 | 1.6 | 9.7 | 0.00 | 0.03 | 0.00 | 84 | 1008.5 |
| 20260506033704 | 10 | 280 | 3.2 | 9.7 | 0.00 | 0.03 | 0.00 | 85 | 1008.7 |
| 20260506033201 | 10 | 270 | 1.6 | 9.7 | 0.00 | 0.03 | 0.00 | 85 | 1008.7 |
| 20260506032702 | 10 | 217 | 0.0 | 6.4 | 0.00 | 0.03 | 0.00 | 86 | 1008.7 |
| 20260506031702 | 10 | 254 | 1.6 | 6.4 | 0.00 | 0.03 | 0.00 | 84 | 1008.8 |
| 20260506031201 | 10 | 243 | 0.0 | 6.4 | 0.00 | 0.03 | 0.00 | 84 | 1008.6 |
| 20260506025658 | 10 | 236 | 4.8 | 8.0 | 0.00 | 0.03 | 0.00 | 84 | 1009.0 |
| 20260506024656 | 10 | 228 | 1.6 | 8.0 | 0.00 | 0.03 | 0.00 | 84 | 1009.1 |
| 20260506024156 | 10 | 238 | 3.2 | 8.0 | 0.00 | 0.03 | 0.00 | 84 | 1009.2 |
| 20260506023655 | 10 | 248 | 3.2 | 6.4 | 0.00 | 0.03 | 0.00 | 85 | 1009.2 |
| 20260506023155 | 10 | 251 | 1.6 | 3.2 | 0.00 | 0.03 | 0.00 | 86 | 1009.2 |
| 20260506022649 | 10 | 236 | 0.0 | 4.8 | 0.00 | 0.03 | 0.00 | 86 | 1009.1 |
| 20260506021640 | 10 | 241 | 0.0 | 3.2 | 0.00 | 0.03 | 0.00 | 87 | 1008.8 |
| 20260506021140 | 10 | 241 | 0.0 | 0.0 | 0.00 | 0.03 | 0.00 | 87 | 1009.0 |
| 20260506020638 | 10 | 241 | 0.0 | 0.0 | 0.00 | 0.03 | 0.00 | 86 | 1009.1 |
| 20260506020136 | 10 | 241 | 0.0 | 0.0 | 0.00 | 0.03 | 0.00 | 86 | 1009.1 |
| 20260506015131 | 10 | 202 | 0.0 | 4.8 | 0.00 | 0.03 | 0.00 | 86 | 1009.1 |
| 20260506014122 | 10 | 249 | 1.6 | 3.2 | 0.00 | 0.03 | 0.00 | 86 | 1009.1 |
| 20260506013621 | 10 | 250 | 0.0 | 3.2 | 0.00 | 0.03 | 0.00 | 86 | 1009.2 |
| 20260506013119 | 10 | 244 | 0.0 | 3.2 | 0.00 | 0.03 | 0.00 | 86 | 1009.3 |
| 20260506012618 | 10 | 214 | 0.0 | 3.2 | 0.00 | 0.03 | 0.00 | 86 | 1009.3 |
| 20260506011615 | 10 | 205 | 0.0 | 3.2 | 0.00 | 0.03 | 0.00 | 86 | 1009.4 |
| 20260506011113 | 10 | 222 | 1.6 | 6.4 | 0.00 | 0.03 | 0.00 | 86 | 1009.5 |
| 20260506010610 | 10 | 211 | 0.0 | 6.4 | 0.00 | 0.03 | 0.00 | 86 | 1009.5 |
| 20260506010110 | 10 | 217 | 1.6 | 4.8 | 0.00 | 0.03 | 0.00 | 86 | 1009.5 |
| 20260506005607 | 10 | 210 | 1.6 | 8.0 | 0.00 | 0.03 | 0.00 | 86 | 1009.4 |
| 20260506005104 | 10 | 188 | 4.8 | 8.0 | 0.00 | 0.03 | 0.00 | 85 | 1009.5 |
| 20260506004103 | 10 | 213 | 1.6 | 6.4 | 0.00 | 0.03 | 0.00 | 84 | 1009.4 |
| 20260506003602 | 11 | 244 | 3.2 | 8.0 | 0.00 | 0.03 | 0.00 | 83 | 1009.5 |
| 20260506003102 | 11 | 236 | 3.2 | 8.0 | 0.00 | 0.03 | 0.00 | 83 | 1009.5 |
| 20260506002605 | 11 | 217 | 3.2 | 4.8 | 0.00 | 0.03 | 0.00 | 83 | 1009.5 |
| 20260506002102 | 11 | 229 | 1.6 | 4.8 | 0.00 | 0.03 | 0.00 | 83 | 1009.7 |
| 20260506001601 | 11 | 206 | 1.6 | 6.4 | 0.00 | 0.03 | 0.00 | 83 | 1009.6 |
| 20260506001103 | 11 | 242 | 1.6 | 8.0 | 0.00 | 0.03 | 0.00 | 83 | 1009.7 |
| 20260506000602 | 11 | 246 | 1.6 | 8.0 | 0.00 | 0.03 | 0.00 | 83 | 1009.7 |
| 20260506000114 | 11 | 236 | 1.6 | 6.4 | 0.00 | 0.03 | 0.00 | 83 | 1009.7 |
| 20260505235600 | 11 | 232 | 3.2 | 8.0 | 0.00 | 0.03 | 0.00 | 83 | 1009.8 |
| 20260505234600 | 11 | 230 | 4.8 | 8.0 | 0.00 | 0.03 | 0.00 | 83 | 1009.9 |
| 20260505233601 | 11 | 234 | 1.6 | 4.8 | 0.00 | 0.03 | 0.00 | 83 | 1010.0 |
| 20260505233101 | 11 | 233 | 1.6 | 4.8 | 0.00 | 0.03 | 0.00 | 83 | 1010.0 |
| 20260505232600 | 11 | 246 | 0.0 | 4.8 | 0.00 | 0.03 | 0.00 | 83 | 1010.1 |
| 20260505232101 | 11 | 240 | 0.0 | 4.8 | 0.00 | 0.03 | 0.00 | 83 | 1010.1 |
| 20260505231600 | 11 | 225 | 1.6 | 4.8 | 0.00 | 0.03 | 0.00 | 83 | 1010.1 |
| 20260505231102 | 11 | 220 | 1.6 | 4.8 | 0.00 | 0.03 | 0.00 | 84 | 1010.2 |
| 20260505230602 | 11 | 207 | 3.2 | 8.0 | 0.00 | 0.03 | 0.00 | 84 | 1010.3 |
| 20260505230115 | 11 | 196 | 3.2 | 8.0 | 0.00 | 0.03 | 0.00 | 83 | 1010.3 |
| 20260505225603 | 11 | 209 | 1.6 | 4.8 | 0.00 | 0.03 | 0.00 | 82 | 1010.4 |
| 20260505224602 | 11 | 214 | 1.6 | 6.4 | 0.00 | 0.03 | 0.00 | 82 | 1010.4 |
| 20260505224103 | 11 | 219 | 1.6 | 6.4 | 0.00 | 0.03 | 0.00 | 83 | 1010.3 |
| 20260505223102 | 11 | 225 | 3.2 | 8.0 | 0.00 | 0.03 | 0.00 | 83 | 1010.1 |
| 20260505222602 | 11 | 204 | 3.2 | 8.0 | 0.00 | 0.03 | 0.00 | 82 | 1010.2 |
| 20260505222101 | 11 | 252 | 3.2 | 8.0 | 0.00 | 0.03 | 0.00 | 82 | 1010.3 |
| 20260505221604 | 12 | 232 | 3.2 | 11.3 | 0.00 | 0.03 | 0.00 | 82 | 1010.3 |
| 20260505221116 | 12 | 261 | 4.8 | 14.5 | 0.00 | 0.05 | 0.00 | 82 | 1010.4 |
| 20260505215601 | 12 | 255 | 3.2 | 12.9 | 0.00 | 0.05 | 0.05 | 80 | 1010.2 |
| 20260505215106 | 12 | 231 | 4.8 | 12.9 | 0.00 | 0.05 | 0.05 | 80 | 1010.1 |
| 20260505214600 | 12 | 269 | 4.8 | 16.1 | 0.00 | 0.05 | 0.05 | 80 | 1010.0 |
| 20260505214101 | 13 | 228 | 6.4 | 16.1 | 0.00 | 0.05 | 0.05 | 81 | 1009.9 |
| 20260505213600 | 13 | 242 | 4.8 | 12.9 | 0.00 | 0.05 | 0.05 | 81 | 1009.7 |
| 20260505213102 | 13 | 240 | 3.2 | 12.9 | 0.00 | 0.05 | 0.05 | 81 | 1009.8 |
| 20260505212115 | 13 | 257 | 0.0 | 8.0 | 0.00 | 0.05 | 0.05 | 80 | 1009.7 |
| 20260505211601 | 13 | 223 | 1.6 | 8.0 | 0.00 | 0.05 | 0.05 | 79 | 1009.8 |
| 20260505211103 | 13 | 273 | 3.2 | 8.0 | 0.00 | 0.05 | 0.05 | 79 | 1009.9 |
| 20260505210604 | 13 | 308 | 3.2 | 11.3 | 0.00 | 0.05 | 0.05 | 80 | 1009.9 |
| 20260505210106 | 13 | 274 | 3.2 | 12.9 | 0.00 | 0.05 | 0.05 | 80 | 1009.8 |
| 20260505204608 | 13 | 250 | 3.2 | 19.3 | 0.00 | 0.05 | 0.05 | 82 | 1010.0 |
| 20260505204101 | 13 | 318 | 3.2 | 19.3 | 0.00 | 0.05 | 0.05 | 82 | 1009.8 |
| 20260505203603 | 13 | 291 | 3.2 | 9.7 | 0.00 | 0.05 | 0.05 | 82 | 1009.9 |
| 20260505203101 | 13 | 215 | 1.6 | 9.7 | 0.00 | 0.10 | 0.05 | 81 | 1010.0 |
| 20260505202108 | 13 | 234 | 4.8 | 12.9 | 0.00 | 0.15 | 0.05 | 80 | 1009.9 |
| 20260505201600 | 13 | 243 | 1.6 | 8.0 | 0.00 | 0.23 | 0.05 | 81 | 1009.9 |
| 20260505201105 | 13 | 223 | 1.6 | 8.0 | 0.00 | 0.28 | 0.05 | 81 | 1009.8 |
| 20260505200603 | 13 | 224 | 1.6 | 6.4 | 0.00 | 0.30 | 0.05 | 81 | 1009.7 |
| 20260505195601 | 13 | 254 | 0.0 | 3.2 | 0.00 | 0.33 | 0.05 | 83 | 1009.5 |
| 20260505195101 | 13 | 266 | 0.0 | 4.8 | 0.00 | 0.33 | 0.05 | 83 | 1009.3 |
| 20260505194601 | 13 | 266 | 0.0 | 4.8 | 0.00 | 0.38 | 0.05 | 82 | 1009.2 |
| 20260505194103 | 13 | 226 | 1.6 | 4.8 | 0.00 | 0.41 | 0.05 | 82 | 1009.2 |
| 20260505193601 | 13 | 246 | 1.6 | 4.8 | 0.00 | 0.43 | 0.05 | 82 | 1009.1 |
| 20260505193102 | 13 | 262 | 1.6 | 4.8 | 0.00 | 0.48 | 0.05 | 82 | 1009.1 |
| 20260505192600 | 13 | 291 | 0.0 | 4.8 | 0.00 | 0.48 | 0.05 | 82 | 1009.0 |
| 20260505192102 | 13 | 302 | 0.0 | 6.4 | 0.00 | 0.48 | 0.05 | 82 | 1009.1 |
| 20260505191601 | 13 | 288 | 3.2 | 6.4 | 0.00 | 0.48 | 0.05 | 81 | 1008.8 |
| 20260505191104 | 13 | 277 | 1.6 | 6.4 | 0.00 | 0.51 | 0.05 | 81 | 1008.7 |
| 20260505190602 | 13 | 278 | 1.6 | 8.0 | 0.00 | 0.51 | 0.05 | 80 | 1008.6 |
| 20260505190107 | 13 | 296 | 3.2 | 8.0 | 0.00 | 0.51 | 0.05 | 81 | 1008.5 |
| 20260505185103 | 13 | 306 | 1.6 | 6.4 | 0.00 | 0.51 | 0.05 | 83 | 1008.3 |
| 20260505184601 | 13 | 290 | 1.6 | 4.8 | 0.00 | 0.51 | 0.05 | 85 | 1008.3 |
| 20260505183602 | 13 | 287 | 3.2 | 4.8 | 0.00 | 0.51 | 0.05 | 86 | 1008.1 |
| 20260505182100 | 13 | 265 | 0.0 | 0.0 | 0.00 | 0.51 | 0.05 | 83 | 1007.7 |
| 20260505181601 | 13 | 265 | 0.0 | 0.0 | 0.00 | 0.51 | 0.05 | 82 | 1007.7 |
| 20260505181101 | 13 | 265 | 0.0 | 0.0 | 0.00 | 0.51 | 0.05 | 81 | 1007.7 |
| 20260505180600 | 14 | 265 | 0.0 | 1.6 | 0.00 | 0.51 | 0.05 | 80 | 1007.7 |
| 20260505175559 | 15 | 301 | 0.0 | 3.2 | 0.00 | 0.51 | 0.05 | 74 | 1007.8 |
| 20260505174558 | 15 | 240 | 1.6 | 3.2 | 0.00 | 0.51 | 0.05 | 72 | 1007.9 |
| 20260505174058 | 15 | 241 | 0.0 | 3.2 | 0.00 | 0.51 | 0.05 | 73 | 1008.0 |
| 20260505173558 | 15 | 259 | 0.0 | 6.4 | 0.00 | 0.51 | 0.05 | 72 | 1008.0 |
| 20260505173052 | 15 | 288 | 3.2 | 6.4 | 0.00 | 0.51 | 0.05 | 72 | 1008.2 |
| 20260505171546 | 16 | 295 | 1.6 | 9.7 | 0.00 | 0.51 | 0.05 | 70 | 1007.9 |
| 20260505170543 | 16 | 325 | 3.2 | 11.3 | 0.00 | 0.51 | 0.05 | 68 | 1007.9 |
| 20260505170038 | 16 | 276 | 3.2 | 14.5 | 0.00 | 0.51 | 0.05 | 68 | 1007.9 |
| 20260505164956 | 17 | 294 | 3.2 | 9.7 | 0.00 | 0.51 | 0.05 | 67 | 1007.9 |
| 20260505164458 | 16 | 331 | 3.2 | 12.9 | 0.00 | 0.51 | 0.05 | 67 | 1007.8 |
| 20260505163952 | 17 | 17 | 3.2 | 12.9 | 0.00 | 0.51 | 0.05 | 67 | 1007.8 |
| 20260505163451 | 17 | 296 | 3.2 | 9.7 | 0.00 | 0.51 | 0.05 | 66 | 1007.9 |
| 20260505162950 | 17 | 313 | 3.2 | 9.7 | 0.00 | 0.51 | 0.05 | 66 | 1007.8 |
| 20260505162445 | 17 | 355 | 1.6 | 11.3 | 0.00 | 0.51 | 0.05 | 66 | 1007.8 |
| 20260505161943 | 17 | 288 | 4.8 | 14.5 | 0.00 | 0.51 | 0.05 | 66 | 1007.9 |
| 20260505160942 | 17 | 310 | 9.7 | 17.7 | 0.00 | 0.51 | 0.05 | 63 | 1007.8 |
| 20260505160439 | 18 | 55 | 4.8 | 11.3 | 0.00 | 0.51 | 0.05 | 64 | 1007.8 |
| 20260505152930 | 17 | 342 | 4.8 | 11.3 | 0.00 | 0.51 | 0.05 | 68 | 1007.8 |
| 20260505151428 | 17 | 355 | 3.2 | 9.7 | 0.00 | 0.51 | 0.05 | 68 | 1007.7 |
| 20260505150927 | 17 | 281 | 4.8 | 9.7 | 0.00 | 0.51 | 0.05 | 69 | 1007.7 |
| 20260505150428 | 17 | 320 | 4.8 | 8.0 | 0.00 | 0.51 | 0.05 | 69 | 1007.6 |